Regional Weather Roundup
Issued by NWS Newport/Morehead, NC

Current Version | Previous Version | Text Only | Print | Product List | Glossary On
Versions: 1 2 3 4 5 6 7 8 9 10 11 12 13 14 15 16 17 18 19 20 21 22 23 24 25 26 27 28 29 30 31 32 33 34 35 36 37 38 39 40 41 42 43 44 45 46 47 48 49 50
000
ASUS42 KMHX 261225
RWRMHX
WEATHER ROUNDUP FOR EASTERN NORTH CAROLINA
NATIONAL WEATHER SERVICE NEWPORT/MOREHEAD CITY NC
800 AM EDT THU MAY 26 2016

NOTE: "FAIR" INDICATES FEW OR NO CLOUDS BELOW 12,000 FEET
WITH NO SIGNIFICANT WEATHER AND/OR OBSTRUCTIONS TO VISIBILITY

NCZ015>017-031-032-045>047-102-103-261300-
NORTH COAST

CITY           SKY/WX    TMP DP  RH WIND       PRES   REMARKS
EDENTON        NOT AVBL
ELIZABETH CITY SUNNY     72  65  78 SW12      30.20S
KITTY HAWK     SUNNY     73  67  80 SW6       30.20S
MANTEO         NOT AVBL

$$

NCZ045>047-081-094-103-104-261300-
CENTRAL COAST

CITY           SKY/WX    TMP DP  RH WIND       PRES   REMARKS
FRISCO         SUNNY     72  66  81 SW5       30.23S

$$

NCZ095-097-098-100-101-261300-
SOUTHERN COAST

CITY           SKY/WX    TMP DP  RH WIND       PRES   REMARKS
BEAUFORT       SUNNY     75  67  76 SW9       30.22S
CEDAR ISLAND   NOT AVBL
JACKSONVILLE   MOSUNNY   73  68  84 SW7       30.22R
PINEY ISLAND   SUNNY    N/A N/A N/A SW6       30.22S
WILMINGTON     CLOUDY    74  69  85 SW5       30.22R


$$

NCZ011>013-027>030-043-044-078>080-089-090>093-098-261300-
COASTAL PLAIN

CITY           SKY/WX    TMP DP  RH WIND       PRES   REMARKS
AHOSKIE        NOT AVBL
CLINTON        MOSUNNY   69  68  95 S3        30.21F
ELIZABETHTOWN  SUNNY     71  67  90 S6        30.22S
GOLDSBORO      MOSUNNY   71  71 100 SW7       30.19S
GREENVILLE     SUNNY     72  66  83 SW7       30.21S
HAVELOCK       MOSUNNY   73  68  84 SW9       30.23S
KENANSVILLE    MOSUNNY   70  65  84 SW3       30.23S
KINSTON        SUNNY     72  64  78 SW9       30.22R
NEW BERN       MOSUNNY   73  68  84 SW7       30.23S
RICHLANDS      CLOUDY    71  68  90 SW7       30.23R
ROCKY MOUNT    MOSUNNY   68  65  90 S8        30.20R
WASHINGTON     MOSUNNY   71  65  79 SW6       30.21S
WHITEVILLE     SUNNY     71  67  89 S5        30.22R

$$

AMZ130-135-150-152-154-156-158-170-250-252-270-ANZ085-086-088-633-658-670-261300-
MARINE OBSERVATIONS

STATION/POSITION TIME  TEMP    WIND        PRES    WAVE   SWELL
                       AIR SEA DIR/SP/G            HT/PER HT/PER
                 (UTC) (F)     (DEG/KT/KT) (MB)    (FT/S) (FT/S)
CHESAPEAKE LIGHT 1200   68     210/ 12/ 12 1022.6
64 E VA BEACH    1150   63 58  230/ 10/ 12 1022.5    2/ 9   2/ 9
DUCK             1200   72 60  210/ 11/ 14 1022.0
2 E DUCK         1111      62                N/A     2/ 9
OREGON INLET     1200   71 72  190/  9/ 10 1023.0
13E OREGON INLT  1200      64                N/A     2/ 8   2/ 8
HATTERAS CG      1200   74 70  220/  6/  9 1023.0
DIAMOND BUOY     1150   71 68  250/  4/  4 1023.8    2/ 7   2/ 7
CAPE LOOKOUT     1200   74     230/  6/  7 1023.2
BEAUFORT LAB     1200   75 70  230/  4/  9 1022.8
30 SE NEW RVR IN 1155      74                N/A     2/ 8
27 SE WRIGHTSVLE 1208   76 73  220/  4/  6 1023.5
5 SE WRIGHTSVLE  1108   73 72  230/  4/  6 1023.9
225 S CAPE HAT   1150   75 78   50/ 10/ 14 1023.0    2/ 7   2/ 7
41 SE CHARLESTON 1150   77 76  170/  6/  8 1023.0    2/ 9   2/ 9

$$



USA.gov is the U.S. government's official web portal to all federal, state and local government web resources and services.